Weather History for Stephenville, TX

Change the Weather History Date:

Wednesday, October 23, 2013

  Actual Average Record
Temperature  
Mean Temperature 66 °F -  
Max Temperature 81 °F 72 °F 89 °F (1989)
Min Temperature 51 °F 51 °F 29 °F (1924)
Cooling Degree Days 1    
Growing Degree Days 16 (Base 50)    
Moisture  
Dew Point 42 °F    
Average Humidity 48    
Maximum Humidity 72    
Minimum Humidity 21    
Precipitation  
Precipitation 0.00 in - - ()
Sea Level Pressure  
Sea Level Pressure 30.14 in    
Wind  
Wind Speed 2 mph (West)    
Max Wind Speed 9 mph    
Max Gust Speed -    
Visibility 10 miles    
Events      
Averages and records for this station are not official NWS values.
T = Trace of Precipitation, MM = Missing Value Source: NWS Daily Summary

Daily Weather History Graph

Daily Weather History Graph

Search for Another Location

Airport:

Trip Planner

Search our weather history database for the weather conditions in past years. The results will help you decide how hot, cold, wet, or windy it might be!

Date:

Astronomy

Oct. 23, 2013 Rise Set
Actual Time 7:42 AM CDT 6:50 PM CDT
Civil Twilight 7:17 AM CDT 7:15 PM CDT
Nautical Twilight 6:48 AM CDT 7:44 PM CDT
Astronomical Twilight 6:20 AM CDT 8:12 PM CDT
Moon 10:31 PM CDT (10/23) 11:52 AM CDT (10/23)
Length of Visible Light 11h 58m
Length of Day
11h 08m
Waning Gibbous, 79% of the Moon is Illuminated
Oct 23
Waning Gibbous
Oct 26
Last Quarter
Nov 3
New
Nov 9
First Quarter
Nov 17
Full

Hourly Weather History & Observations

Time (CDT) Temp. Dew Point Humidity Pressure Visibility Wind Dir Wind Speed Gust Speed Precip Events Conditions
12:15 AM 57.6 °F 41.4 °F 55% 30.14 in 10.0 mi Calm Calm - N/A   Clear
12:35 AM 58.1 °F 41.0 °F 53% 30.14 in 10.0 mi Calm Calm - N/A   Clear
12:55 AM 58.1 °F 41.0 °F 53% 30.14 in 10.0 mi Calm Calm - N/A   Clear
1:15 AM 56.5 °F 41.2 °F 57% 30.14 in 10.0 mi Calm Calm - N/A   Clear
1:35 AM 57.0 °F 41.0 °F 55% 30.14 in 10.0 mi Calm Calm - N/A   Clear
1:55 AM 58.5 °F 40.6 °F 52% 30.14 in 10.0 mi Calm Calm - N/A   Clear
2:15 AM 58.1 °F 41.0 °F 53% 30.14 in 10.0 mi Calm Calm - N/A   Clear
2:35 AM 57.2 °F 41.4 °F 55% 30.14 in 10.0 mi Calm Calm - N/A   Clear
2:55 AM 55.0 °F 41.9 °F 61% 30.14 in 10.0 mi Calm Calm - N/A   Clear
3:15 AM 54.7 °F 42.3 °F 63% 30.14 in 10.0 mi Calm Calm - N/A   Clear
3:35 AM 53.2 °F 43.0 °F 68% 30.14 in 10.0 mi Calm Calm - N/A   Clear
3:55 AM 52.9 °F 42.8 °F 69% 30.14 in 10.0 mi Calm Calm - N/A   Clear
4:15 AM 51.8 °F 43.2 °F 72% 30.14 in 10.0 mi Calm Calm - N/A   Clear
4:35 AM 53.1 °F 42.4 °F 67% 30.14 in 10.0 mi Calm Calm - N/A   Clear
4:55 AM 53.2 °F 42.4 °F 67% 30.14 in 10.0 mi Calm Calm - N/A   Clear
5:15 AM 52.9 °F 42.4 °F 68% 30.14 in 10.0 mi Calm Calm - N/A   Clear
5:35 AM 52.3 °F 42.8 °F 70% 30.14 in 10.0 mi Calm Calm - N/A   Clear
5:55 AM 52.7 °F 42.3 °F 68% 30.15 in 10.0 mi NW 3.5 mph - N/A   Clear
6:15 AM 52.7 °F 42.3 °F 68% 30.15 in 10.0 mi NW 3.5 mph - N/A   Clear
6:35 AM 52.0 °F 42.3 °F 69% 30.16 in 10.0 mi NW 5.8 mph - N/A   Clear
6:55 AM 52.0 °F 41.9 °F 69% 30.16 in 10.0 mi NW 4.6 mph - N/A   Clear
7:15 AM 52.2 °F 41.9 °F 68% 30.16 in 10.0 mi NW 3.5 mph - N/A   Clear
7:35 AM 52.5 °F 41.5 °F 66% 30.16 in 10.0 mi WNW 3.5 mph - N/A   Clear
7:55 AM 53.4 °F 41.2 °F 63% 30.17 in 10.0 mi WNW 3.5 mph - N/A   Clear
8:15 AM 53.8 °F 41.9 °F 64% 30.17 in 10.0 mi NW 3.5 mph - N/A   Clear
8:35 AM 54.3 °F 42.8 °F 65% 30.17 in 10.0 mi NW 3.5 mph - N/A   Clear
8:55 AM 57.4 °F 43.3 °F 59% 30.17 in 10.0 mi Calm Calm - N/A   Clear
9:15 AM 59.4 °F 44.6 °F 58% 30.18 in 10.0 mi Calm Calm - N/A   Clear
9:35 AM 62.6 °F 45.5 °F 54% 30.18 in 10.0 mi WNW 3.5 mph - N/A   Clear
9:55 AM 66.2 °F 43.7 °F 44% 30.19 in 10.0 mi West 5.8 mph - N/A   Clear
10:15 AM 68.5 °F 43.3 °F 40% 30.19 in 10.0 mi West 4.6 mph - N/A   Clear
10:35 AM 70.2 °F 42.8 °F 37% 30.19 in 10.0 mi West 6.9 mph - N/A   Clear
10:55 AM 71.8 °F 41.7 °F 34% 30.18 in 10.0 mi West 8.1 mph - N/A   Clear
11:15 AM 72.9 °F 42.8 °F 34% 30.17 in 10.0 mi WNW 4.6 mph - N/A   Clear
11:35 AM 74.3 °F 42.3 °F 32% 30.17 in 10.0 mi WNW 3.5 mph - N/A   Clear
11:55 AM 76.1 °F 42.8 °F 30% 30.17 in 10.0 mi West 3.5 mph - N/A   Clear
12:15 PM 77.9 °F 41.5 °F 27% 30.17 in 10.0 mi West 5.8 mph - N/A   Clear
12:35 PM 78.4 °F 38.3 °F 24% 30.17 in 10.0 mi West 8.1 mph - N/A   Clear
12:55 PM 78.6 °F 38.1 °F 23% 30.16 in 10.0 mi WSW 8.1 mph - N/A   Clear
1:15 PM 79.7 °F 38.5 °F 23% 30.16 in 10.0 mi SW 4.6 mph - N/A   Clear
1:35 PM 79.5 °F 38.5 °F 23% 30.15 in 10.0 mi West 5.8 mph - N/A   Clear
1:55 PM 80.4 °F 37.8 °F 22% 30.14 in 10.0 mi SW 6.9 mph - N/A   Clear
2:15 PM 80.2 °F 39.0 °F 23% 30.13 in 10.0 mi SW 5.8 mph - N/A   Clear
2:35 PM 80.2 °F 37.0 °F 21% 30.12 in 10.0 mi SSW 5.8 mph - N/A   Clear
2:55 PM 80.6 °F 38.7 °F 22% 30.12 in 10.0 mi SSW 8.1 mph - N/A   Clear
3:15 PM 81.0 °F 39.9 °F 23% 30.12 in 10.0 mi WSW 8.1 mph - N/A   Clear
3:35 PM 80.8 °F 38.7 °F 22% 30.11 in 10.0 mi SSW 8.1 mph - N/A   Clear
3:55 PM 80.8 °F 37.8 °F 21% 30.11 in 10.0 mi WSW 9.2 mph - N/A   Clear
4:15 PM 80.8 °F 38.1 °F 22% 30.11 in 10.0 mi SSW 8.1 mph - N/A   Clear
4:35 PM 80.6 °F 38.1 °F 22% 30.11 in 10.0 mi SW 8.1 mph - N/A   Clear
4:55 PM 80.2 °F 37.9 °F 22% 30.10 in 10.0 mi WSW 6.9 mph - N/A   Clear
5:15 PM 79.7 °F 38.3 °F 23% 30.10 in 10.0 mi WSW 9.2 mph - N/A   Clear
5:35 PM 79.2 °F 38.5 °F 23% 30.10 in 10.0 mi SW 8.1 mph - N/A   Clear
5:55 PM 78.1 °F 39.7 °F 25% 30.10 in 10.0 mi SSW 4.6 mph - N/A   Clear
6:15 PM 76.6 °F 40.8 °F 28% 30.10 in 10.0 mi SSW 3.5 mph - N/A   Clear
6:35 PM 74.5 °F 41.5 °F 31% 30.10 in 10.0 mi Calm Calm - N/A   Clear
6:55 PM 72.3 °F 41.9 °F 33% 30.10 in 10.0 mi Calm Calm - N/A   Clear
7:15 PM 71.1 °F 43.2 °F 37% 30.10 in 10.0 mi Calm Calm - N/A   Clear
7:35 PM 69.6 °F 43.3 °F 39% 30.10 in 10.0 mi Calm Calm - N/A   Clear
7:55 PM 66.2 °F 45.9 °F 48% 30.11 in 10.0 mi Calm Calm - N/A   Clear
8:15 PM 66.4 °F 45.0 °F 46% 30.12 in 10.0 mi Calm Calm - N/A   Clear
8:35 PM 62.4 °F 47.8 °F 59% 30.12 in 10.0 mi Calm Calm - N/A   Clear
8:55 PM 62.2 °F 47.5 °F 58% 30.12 in 10.0 mi Calm Calm - N/A   Clear
9:15 PM 60.3 °F 47.3 °F 62% 30.12 in 10.0 mi Calm Calm - N/A   Clear
9:35 PM 61.3 °F 46.6 °F 58% 30.12 in 10.0 mi Calm Calm - N/A   Clear
9:55 PM 58.8 °F 48.6 °F 69% 30.13 in 10.0 mi Calm Calm - N/A   Clear
10:15 PM 57.4 °F 47.5 °F 70% 30.13 in 10.0 mi Calm Calm - N/A   Clear
10:35 PM 59.9 °F 45.9 °F 60% 30.14 in 10.0 mi Calm Calm - N/A   Scattered Clouds
10:55 PM 58.1 °F 47.3 °F 67% 30.14 in 10.0 mi Calm Calm - N/A   Clear
11:15 PM 59.9 °F 45.7 °F 59% 30.14 in 10.0 mi Calm Calm - N/A   Clear
11:35 PM 58.5 °F 46.4 °F 64% 30.14 in 10.0 mi Calm Calm - N/A   Clear
11:55 PM 57.6 °F 46.4 °F 66% 30.14 in 10.0 mi Calm Calm - N/A   Clear